STARLINK-11506, 62466

Orbit data source: Space-Track

STARLINK-11506, 62466 is a payload satellite owned by SpaceX/Seattle (US) in LEO that was launched on Tue, 31 Dec 2024 UTC via an FALCON 9 launch vehicle from the Air Force Eastern Test Range (AFETR). Payloads include a variety of satellites, spacecraft, and rockets equipped with specific instruments for various scientific and technological missions. These include communications satellites like Starlink; space stations such as the ISS; scientific satellites like the Hubble; Earth observation satellites from companies like Planet Labs, Umbra, and HawkEye 360; GPS; miniature CubeSats for education and research; and military/defense satellites.

Loading next visibility...
STARLINK-11506 details
Identifier
62466, 2024-254E
Orbit
LEO
Last TLE update1 day ago
Origin
Flag of USSpaceX/Seattle (US)
ManufacturerSpaceX/Seattle
MissionOperational Commercial Communications
Bus & MotorSTARLINK V2M, Unknown motor
Mass730 kg wet, ~700 kg dry
Launch date (UTC)
2024-12-31 (1 month ago)
Launch vehicle
FALCON 9
Launch site
Air Force Eastern Test Range (AFETR)
Object type
Payload
Rocket body
Debris
Shape & HBRBox + 2 Pan, 29 m
Radar Cross Section36.964 m², Large (>1 m²)

Expand to show TLE details & history

TLE from 1 day ago
0 STARLINK-11506
1 62466U 24254E   25035.20683180  .00005915  00000-0  36842-4 0  9991
2 62466  42.9976 106.3871 0001437 274.4095  85.6611 15.77850741  6553
Epoch: 2025-02-04T04:57Z
Definitive object data (Epoch: 2025-02-04T04:57:50.267Z)
Latitude-0.00002°
Longitude-102.68781°
Altitude336.229 km
Speed7.709 km/s
True Right ascension07h 05m 32s
True Declination0° 00' 00"
Sunlit
Object was in full shadow at TLE epoch
Visualization TLE readout
Latitude-42.39307°
Longitude174.4338°
Altitude348.527 km
Speed7.701 km/s
Apparent Right ascension22h 18m 01s
Apparent Declination-53° 15' 02"
Sunlit
Object is in daylight
Visualization observer readout
Local Sidereal Time06:57:50
Azimuth231.257° WSW
Elevation-53.984°
Doppler factor1
Orbital elements
Apogee altitude339.484 km
Perigee altitude337.554 km
Semi-major axis6,716.656 km
Eccentricity0.0001437
Inclination42.9976°
RAAN106.3871°
Arg. of periapsis274.4095°
True anomaly85.67752°
Mean anomaly85.6611°
Eccentric anomaly85.66931°
Mean motion3.94288 °/min
BSTAR0.000036842
Orbital period91.3 mins
Loading maneuver chart data...
Loading historical data...
Loading historical data...
Loading historical data...
Loading historical data...
Loading historical data...
Loading historical data...
Loading historical data...

STARLINK-11506 Visibility forecast

Observer location: undefined°, undefined

Span
Click to sort rows by Start time (UTC) header in descending order
Start Az.
Max El. time (UTC)
Max El. Az.
Max El.
End time (UTC)
End Az.
4 mins2025-02-05 08:33:55.324Z241.712° WSW2025-02-05 08:35:55.324Z108.069° ESE42.239°2025-02-05 08:37:55.324Z75.004° E
4 mins2025-02-05 10:09:55.324Z293.902° NW2025-02-05 10:11:55.324Z28.094° NE31.518°2025-02-05 10:13:55.324Z68.905° E
4 mins2025-02-05 11:45:55.324Z299.45° NW2025-02-05 11:46:55.324Z330.04° NNW38.864°2025-02-05 11:49:55.324Z95.326° ESE
|